Time,TemperatureF,DewpointF,PressureIn,WindDirection,WindDirectionDegrees,WindSpeedMPH,WindSpeedGustMPH,Humidity,HourlyPrecipIn,Conditions,Clouds,dailyrainin,SolarRadiationWatts/m^2,SoftwareType,DateUTC
2013-04-20 00:09:00,34.9,30.6,29.92,West,277,7.0,14.0,84,0.00,CLR,CLR,0.00,0.0,WeatherDisplay:10.37,2013-04-20 05:09:00,
2013-04-20 00:14:00,34.8,30.5,29.92,West,277,6.0,9.0,84,0.00,CLR,CLR,0.00,0.0,WeatherDisplay:10.37,2013-04-20 05:14:00,
2013-04-20 00:19:00,34.9,30.8,29.92,West,279,5.0,12.0,85,0.00,CLR,CLR,0.00,0.0,WeatherDisplay:10.37,2013-04-20 05:19:00,
2013-04-20 00:24:00,34.9,30.8,29.93,West,278,6.0,9.0,85,0.00,CLR,CLR,0.00,0.0,WeatherDisplay:10.37,2013-04-20 05:24:00,
2013-04-20 00:29:00,35.0,30.9,29.93,West,275,6.0,9.0,85,0.00,CLR,CLR,0.00,0.0,WeatherDisplay:10.37,2013-04-20 05:29:00,
2013-04-20 00:34:00,35.0,30.9,29.93,West,279,6.0,9.0,85,0.00,CLR,CLR,0.00,0.0,WeatherDisplay:10.37,2013-04-20 05:34:00,
2013-04-20 00:39:00,35.0,30.9,29.93,West,279,6.0,10.0,85,0.00,CLR,CLR,0.00,0.0,WeatherDisplay:10.37,2013-04-20 05:39:00,
2013-04-20 00:44:00,35.0,30.9,29.94,West,280,6.0,10.0,85,0.00,CLR,CLR,0.00,0.0,WeatherDisplay:10.37,2013-04-20 05:44:00,
2013-04-20 00:49:00,34.9,30.8,29.94,West,279,7.0,12.0,85,0.00,CLR,CLR,0.00,0.0,WeatherDisplay:10.37,2013-04-20 05:49:00,
2013-04-20 00:54:00,34.8,30.8,29.94,West,278,6.0,12.0,85,0.00,CLR,CLR,0.00,0.0,WeatherDisplay:10.37,2013-04-20 05:54:00,
2013-04-20 00:59:00,34.7,30.7,29.94,West,276,6.0,12.0,85,0.00,CLR,CLR,0.00,0.0,WeatherDisplay:10.37,2013-04-20 05:59:00,
2013-04-20 01:04:00,34.5,30.5,29.95,West,277,6.0,12.0,85,0.00,CLR,CLR,0.00,0.0,WeatherDisplay:10.37,2013-04-20 06:04:00,
2013-04-20 01:09:00,34.1,30.4,29.95,West,279,5.0,8.0,86,0.00,CLR,CLR,0.00,0.0,WeatherDisplay:10.37,2013-04-20 06:09:00,
2013-04-20 01:14:00,34.0,30.3,29.95,West,278,6.0,9.0,86,0.00,CLR,CLR,0.00,0.0,WeatherDisplay:10.37,2013-04-20 06:14:00,
2013-04-20 01:19:00,34.0,30.3,29.95,West,278,5.0,8.0,86,0.00,CLR,CLR,0.00,0.0,WeatherDisplay:10.37,2013-04-20 06:19:00,
2013-04-20 01:24:00,33.9,30.2,29.95,West,279,6.0,9.0,86,0.00,CLR,CLR,0.00,0.0,WeatherDisplay:10.37,2013-04-20 06:24:00,
2013-04-20 01:29:00,33.9,30.4,29.95,WNW,282,5.0,7.0,87,0.00,CLR,CLR,0.00,0.0,WeatherDisplay:10.37,2013-04-20 06:29:00,
2013-04-20 01:34:00,33.9,30.4,29.95,West,281,6.0,9.0,87,0.00,CLR,CLR,0.00,0.0,WeatherDisplay:10.37,2013-04-20 06:34:00,
2013-04-20 01:39:00,34.1,30.6,29.95,West,278,5.0,8.0,87,0.00,CLR,CLR,0.00,0.0,WeatherDisplay:10.37,2013-04-20 06:39:00,
2013-04-20 01:44:00,34.3,30.5,29.96,West,278,7.0,10.0,86,0.00,CLR,CLR,0.00,0.0,WeatherDisplay:10.37,2013-04-20 06:44:00,
2013-04-20 01:49:00,34.2,30.5,29.96,West,280,6.0,8.0,86,0.00,CLR,CLR,0.00,0.0,WeatherDisplay:10.37,2013-04-20 06:49:00,
2013-04-20 01:54:00,34.2,30.4,29.96,WNW,282,6.0,8.0,86,0.00,CLR,CLR,0.00,0.0,WeatherDisplay:10.37,2013-04-20 06:54:00,
2013-04-20 01:59:00,34.1,30.4,29.96,West,280,5.0,10.0,86,0.00,CLR,CLR,0.00,0.0,WeatherDisplay:10.37,2013-04-20 06:59:00,
2013-04-20 02:04:00,34.0,30.3,29.96,West,281,6.0,10.0,86,0.00,CLR,CLR,0.00,0.0,WeatherDisplay:10.37,2013-04-20 07:04:00,
2013-04-20 02:09:00,34.0,30.3,29.96,West,281,5.0,8.0,86,0.00,CLR,CLR,0.00,0.0,WeatherDisplay:10.37,2013-04-20 07:09:00,
2013-04-20 02:14:00,34.0,30.3,29.96,WNW,282,5.0,9.0,86,0.00,CLR,CLR,0.00,0.0,WeatherDisplay:10.37,2013-04-20 07:14:00,
2013-04-20 02:19:00,33.9,30.2,29.97,West,281,6.0,9.0,86,0.00,CLR,CLR,0.00,0.0,WeatherDisplay:10.37,2013-04-20 07:19:00,
2013-04-20 02:24:00,34.0,30.2,29.97,West,280,5.0,10.0,86,0.00,CLR,CLR,0.00,0.0,WeatherDisplay:10.37,2013-04-20 07:24:00,
2013-04-20 02:29:00,33.9,30.2,29.97,West,279,5.0,12.0,86,0.00,CLR,CLR,0.00,0.0,WeatherDisplay:10.37,2013-04-20 07:29:00,
2013-04-20 02:34:00,33.7,30.0,29.97,WNW,284,5.0,7.0,86,0.00,CLR,CLR,0.00,0.0,WeatherDisplay:10.37,2013-04-20 07:34:00,
2013-04-20 02:39:00,33.7,30.2,29.97,WNW,285,3.0,10.0,87,0.00,CLR,CLR,0.00,0.0,WeatherDisplay:10.37,2013-04-20 07:39:00,
2013-04-20 02:44:00,33.6,30.1,29.98,West,281,5.0,7.0,87,0.00,CLR,CLR,0.00,0.0,WeatherDisplay:10.37,2013-04-20 07:44:00,
2013-04-20 02:49:00,33.6,30.1,29.98,West,281,5.0,8.0,87,0.00,CLR,CLR,0.00,0.0,WeatherDisplay:10.37,2013-04-20 07:49:00,
2013-04-20 02:54:00,33.8,30.3,29.98,West,281,5.0,7.0,87,0.00,CLR,CLR,0.00,0.0,WeatherDisplay:10.37,2013-04-20 07:54:00,
2013-04-20 02:59:00,34.0,30.5,29.98,West,281,5.0,8.0,87,0.00,CLR,CLR,0.00,0.0,WeatherDisplay:10.37,2013-04-20 07:59:00,
2013-04-20 03:04:00,34.0,30.6,29.98,West,281,5.0,7.0,87,0.00,CLR,CLR,0.00,0.0,WeatherDisplay:10.37,2013-04-20 08:04:00,
2013-04-20 03:09:00,34.1,30.6,29.98,West,281,5.0,8.0,87,0.00,CLR,CLR,0.00,0.0,WeatherDisplay:10.37,2013-04-20 08:09:00,
2013-04-20 03:14:00,33.9,30.4,29.99,WNW,282,5.0,8.0,87,0.00,CLR,CLR,0.00,0.0,WeatherDisplay:10.37,2013-04-20 08:14:00,
2013-04-20 03:19:00,34.0,30.5,29.99,WNW,284,5.0,9.0,87,0.00,CLR,CLR,0.00,0.0,WeatherDisplay:10.37,2013-04-20 08:19:00,
2013-04-20 03:24:00,33.9,30.4,29.99,WNW,285,5.0,8.0,87,0.00,CLR,CLR,0.00,0.0,WeatherDisplay:10.37,2013-04-20 08:24:00,
2013-04-20 03:29:00,33.7,30.0,29.99,West,281,3.0,8.0,86,0.00,CLR,CLR,0.00,0.0,WeatherDisplay:10.37,2013-04-20 08:29:00,
2013-04-20 03:34:00,33.5,30.0,30.00,WNW,282,3.0,6.0,87,0.00,CLR,CLR,0.00,0.0,WeatherDisplay:10.37,2013-04-20 08:34:00,
2013-04-20 03:39:00,33.4,29.9,30.00,WNW,282,3.0,9.0,87,0.00,CLR,CLR,0.00,0.0,WeatherDisplay:10.37,2013-04-20 08:39:00,
2013-04-20 03:44:00,33.2,29.8,30.00,WNW,282,5.0,7.0,87,0.00,CLR,CLR,0.00,0.0,WeatherDisplay:10.37,2013-04-20 08:44:00,
2013-04-20 03:49:00,33.2,29.8,30.00,WNW,284,6.0,9.0,87,0.00,CLR,CLR,0.00,0.0,WeatherDisplay:10.37,2013-04-20 08:49:00,
2013-04-20 03:54:00,33.0,29.6,30.00,WNW,285,3.0,6.0,87,0.00,CLR,CLR,0.00,0.0,WeatherDisplay:10.37,2013-04-20 08:54:00,
2013-04-20 03:59:00,32.9,29.5,30.01,WNW,285,5.0,8.0,87,0.00,CLR,CLR,0.00,0.0,WeatherDisplay:10.37,2013-04-20 08:59:00,
2013-04-20 04:04:00,32.8,29.6,30.01,WNW,288,5.0,7.0,88,0.00,CLR,CLR,0.00,0.0,WeatherDisplay:10.37,2013-04-20 09:04:00,
2013-04-20 04:09:00,32.8,29.4,30.01,WNW,288,5.0,10.0,87,0.00,CLR,CLR,0.00,0.0,WeatherDisplay:10.37,2013-04-20 09:09:00,
2013-04-20 04:19:00,32.6,29.2,30.02,WNW,289,3.0,8.0,87,0.00,CLR,CLR,0.00,0.0,WeatherDisplay:10.37,2013-04-20 09:19:00,
2013-04-20 04:24:00,32.5,29.3,30.02,WNW,290,3.0,6.0,88,0.00,CLR,CLR,0.00,0.0,WeatherDisplay:10.37,2013-04-20 09:24:00,
2013-04-20 04:29:00,32.3,29.1,30.02,WNW,291,3.0,5.0,88,0.00,CLR,CLR,0.00,0.0,WeatherDisplay:10.37,2013-04-20 09:29:00,
2013-04-20 04:34:00,32.1,28.9,30.02,WNW,290,2.0,4.0,88,0.00,CLR,CLR,0.00,0.0,WeatherDisplay:10.37,2013-04-20 09:34:00,
2013-04-20 04:39:00,31.9,29.0,30.03,WNW,291,2.0,4.0,89,0.00,CLR,CLR,0.00,0.0,WeatherDisplay:10.37,2013-04-20 09:39:00,
2013-04-20 04:44:00,31.6,29.0,30.03,WNW,291,2.0,3.0,90,0.00,CLR,CLR,0.00,0.0,WeatherDisplay:10.37,2013-04-20 09:44:00,
2013-04-20 04:49:00,31.4,28.8,30.03,WNW,291,2.0,4.0,90,0.00,CLR,CLR,0.00,0.0,WeatherDisplay:10.37,2013-04-20 09:49:00,
2013-04-20 04:54:00,31.3,29.0,30.04,WNW,290,3.0,5.0,91,0.00,CLR,CLR,0.00,0.0,WeatherDisplay:10.37,2013-04-20 09:54:00,
2013-04-20 04:59:00,31.4,28.8,30.04,WNW,290,2.0,5.0,90,0.00,CLR,CLR,0.00,0.0,WeatherDisplay:10.37,2013-04-20 09:59:00,
2013-04-20 05:04:00,31.3,28.5,30.04,WNW,289,3.0,7.0,89,0.00,CLR,CLR,0.00,0.0,WeatherDisplay:10.37,2013-04-20 10:04:00,
2013-04-20 05:09:00,31.4,28.5,30.05,WNW,289,3.0,7.0,89,0.00,CLR,CLR,0.00,0.0,WeatherDisplay:10.37,2013-04-20 10:09:00,
2013-04-20 05:14:00,31.5,28.3,30.05,WNW,291,3.0,5.0,88,0.00,CLR,CLR,0.00,0.0,WeatherDisplay:10.37,2013-04-20 10:14:00,
2013-04-20 05:19:00,31.4,28.0,30.05,WNW,293,3.0,5.0,87,0.00,CLR,CLR,0.00,0.0,WeatherDisplay:10.37,2013-04-20 10:19:00,
2013-04-20 05:24:00,31.3,27.9,30.05,WNW,292,2.0,5.0,87,0.00,CLR,CLR,0.00,0.0,WeatherDisplay:10.37,2013-04-20 10:24:00,
2013-04-20 05:29:00,31.1,27.7,30.05,WNW,291,2.0,3.0,87,0.00,CLR,CLR,0.00,0.0,WeatherDisplay:10.37,2013-04-20 10:29:00,
2013-04-20 05:34:00,30.9,27.8,30.06,WNW,297,2.0,4.0,88,0.00,CLR,CLR,0.00,0.0,WeatherDisplay:10.37,2013-04-20 10:34:00,
2013-04-20 05:39:00,30.8,27.7,30.06,WNW,301,2.0,4.0,88,0.00,CLR,CLR,0.00,0.0,WeatherDisplay:10.37,2013-04-20 10:39:00,
2013-04-20 05:44:00,30.6,27.5,30.06,WNW,300,2.0,3.0,88,0.00,CLR,CLR,0.00,0.0,WeatherDisplay:10.37,2013-04-20 10:44:00,
2013-04-20 05:49:00,30.4,27.3,30.07,WNW,300,1.0,3.0,88,0.00,CLR,CLR,0.00,0.0,WeatherDisplay:10.37,2013-04-20 10:49:00,
2013-04-20 05:54:00,30.2,27.3,30.07,WNW,300,1.0,2.0,89,0.00,CLR,CLR,0.00,0.0,WeatherDisplay:10.37,2013-04-20 10:54:00,
2013-04-20 05:59:00,30.0,27.2,30.07,WNW,300,2.0,3.0,89,0.00,CLR,CLR,0.00,0.0,WeatherDisplay:10.37,2013-04-20 10:59:00,
2013-04-20 06:04:00,29.9,27.1,30.08,WNW,300,2.0,3.0,89,0.00,CLR,CLR,0.00,0.0,WeatherDisplay:10.37,2013-04-20 11:04:00,
2013-04-20 06:09:00,29.9,27.1,30.08,WNW,300,1.0,3.0,89,0.00,CLR,CLR,0.00,0.0,WeatherDisplay:10.37,2013-04-20 11:09:00,
2013-04-20 06:14:00,29.9,27.1,30.08,WNW,300,1.0,3.0,89,0.00,CLR,CLR,0.00,0.0,WeatherDisplay:10.37,2013-04-20 11:14:00,
2013-04-20 06:19:00,29.9,27.1,30.09,WNW,300,2.0,3.0,89,0.00,CLR,CLR,0.00,0.0,WeatherDisplay:10.37,2013-04-20 11:19:00,
2013-04-20 06:24:00,29.9,27.1,30.09,WNW,300,1.0,3.0,89,0.00,CLR,CLR,0.00,0.0,WeatherDisplay:10.37,2013-04-20 11:24:00,
2013-04-20 06:29:00,30.0,27.2,30.09,WNW,300,1.0,2.0,89,0.00,CLR,CLR,0.00,0.0,WeatherDisplay:10.37,2013-04-20 11:29:00,
2013-04-20 06:34:00,30.1,27.3,30.10,WNW,300,1.0,2.0,89,0.00,CLR,CLR,0.00,0.0,WeatherDisplay:10.37,2013-04-20 11:34:00,
2013-04-20 06:39:00,30.2,27.4,30.10,WNW,300,2.0,4.0,89,0.00,CLR,CLR,0.00,0.0,WeatherDisplay:10.37,2013-04-20 11:39:00,
2013-04-20 06:44:00,30.6,27.7,30.11,WNW,300,1.0,3.0,89,0.00,CLR,CLR,0.00,0.0,WeatherDisplay:10.37,2013-04-20 11:44:00,
2013-04-20 06:49:00,30.9,28.0,30.11,WNW,300,2.0,3.0,89,0.00,CLR,CLR,0.00,0.0,WeatherDisplay:10.37,2013-04-20 11:49:00,
2013-04-20 06:54:00,31.3,28.4,30.11,WNW,297,2.0,3.0,89,0.00,CLR,CLR,0.00,0.0,WeatherDisplay:10.37,2013-04-20 11:54:00,
2013-04-20 06:59:00,31.8,28.4,30.12,WNW,296,2.0,4.0,87,0.00,CLR,CLR,0.00,0.0,WeatherDisplay:10.37,2013-04-20 11:59:00,
2013-04-20 07:04:00,32.3,28.9,30.12,WNW,295,2.0,4.0,87,0.00,CLR,CLR,0.00,0.0,WeatherDisplay:10.37,2013-04-20 12:04:00,
2013-04-20 07:09:00,32.7,29.3,30.12,WNW,293,2.0,4.0,87,0.00,CLR,CLR,0.00,0.0,WeatherDisplay:10.37,2013-04-20 12:09:00,
2013-04-20 07:14:00,33.1,29.1,30.12,WNW,298,3.0,6.0,85,0.00,CLR,CLR,0.00,0.0,WeatherDisplay:10.37,2013-04-20 12:14:00,
2013-04-20 07:19:00,33.4,29.1,30.13,WNW,299,3.0,4.0,84,0.00,CLR,CLR,0.00,0.0,WeatherDisplay:10.37,2013-04-20 12:19:00,
2013-04-20 07:24:00,33.7,29.7,30.13,WNW,294,2.0,4.0,85,0.00,CLR,CLR,0.00,0.0,WeatherDisplay:10.37,2013-04-20 12:24:00,
2013-04-20 07:29:00,34.0,29.4,30.14,WNW,293,3.0,5.0,83,0.00,CLR,CLR,0.00,0.0,WeatherDisplay:10.37,2013-04-20 12:29:00,
2013-04-20 07:34:00,34.2,29.3,30.14,WNW,294,5.0,5.0,82,0.00,CLR,CLR,0.00,0.0,WeatherDisplay:10.37,2013-04-20 12:34:00,
2013-04-20 07:39:00,34.6,30.0,30.14,WNW,290,5.0,8.0,83,0.00,CLR,CLR,0.00,0.0,WeatherDisplay:10.37,2013-04-20 12:39:00,
2013-04-20 07:44:00,34.8,29.6,30.15,WNW,298,3.0,6.0,81,0.00,CLR,CLR,0.00,0.0,WeatherDisplay:10.37,2013-04-20 12:44:00,
2013-04-20 07:49:00,34.9,29.0,30.15,WNW,295,3.0,7.0,79,0.00,CLR,CLR,0.00,0.0,WeatherDisplay:10.37,2013-04-20 12:49:00,
2013-04-20 07:54:00,35.1,28.9,30.15,WNW,299,3.0,7.0,78,0.00,CLR,CLR,0.00,0.0,WeatherDisplay:10.37,2013-04-20 12:54:00,
2013-04-20 07:59:00,35.4,29.5,30.15,NW,305,3.0,6.0,79,0.00,CLR,CLR,0.00,0.0,WeatherDisplay:10.37,2013-04-20 12:59:00,
2013-04-20 08:04:00,35.5,28.7,30.16,NW,307,5.0,7.0,76,0.00,CLR,CLR,0.00,0.0,WeatherDisplay:10.37,2013-04-20 13:04:00,
2013-04-20 08:09:00,35.8,30.0,30.16,NW,309,3.0,5.0,79,0.00,CLR,CLR,0.00,0.0,WeatherDisplay:10.37,2013-04-20 13:09:00,
2013-04-20 08:14:00,36.1,29.9,30.16,NW,310,3.0,6.0,78,0.00,CLR,CLR,0.00,0.0,WeatherDisplay:10.37,2013-04-20 13:14:00,
2013-04-20 08:19:00,36.5,30.0,30.16,NW,312,3.0,7.0,77,0.00,CLR,CLR,0.00,0.0,WeatherDisplay:10.37,2013-04-20 13:19:00,
2013-04-20 08:24:00,36.5,29.3,30.17,NW,319,5.0,7.0,75,0.00,CLR,CLR,0.00,0.0,WeatherDisplay:10.37,2013-04-20 13:24:00,
2013-04-20 08:29:00,36.5,29.7,30.17,NW,313,3.0,7.0,76,0.00,CLR,CLR,0.00,0.0,WeatherDisplay:10.37,2013-04-20 13:29:00,
2013-04-20 08:34:00,36.7,29.2,30.17,NW,307,5.0,7.0,74,0.00,CLR,CLR,0.00,0.0,WeatherDisplay:10.37,2013-04-20 13:34:00,
2013-04-20 08:39:00,37.1,30.5,30.17,NW,304,3.0,6.0,77,0.00,CLR,CLR,0.00,0.0,WeatherDisplay:10.37,2013-04-20 13:39:00,
2013-04-20 08:44:00,37.5,30.0,30.17,NW,310,3.0,8.0,74,0.00,CLR,CLR,0.00,0.0,WeatherDisplay:10.37,2013-04-20 13:44:00,
2013-04-20 08:49:00,37.7,29.1,30.17,NW,310,7.0,10.0,71,0.00,CLR,CLR,0.00,0.0,WeatherDisplay:10.37,2013-04-20 13:49:00,
2013-04-20 08:54:00,37.7,28.8,30.17,NW,304,5.0,8.0,70,0.00,CLR,CLR,0.00,0.0,WeatherDisplay:10.37,2013-04-20 13:54:00,
2013-04-20 08:59:00,38.1,29.5,30.17,NW,308,5.0,9.0,71,0.00,CLR,CLR,0.00,0.0,WeatherDisplay:10.37,2013-04-20 13:59:00,
2013-04-20 09:04:00,38.5,29.9,30.18,NW,315,5.0,7.0,71,0.00,CLR,CLR,0.00,0.0,WeatherDisplay:10.37,2013-04-20 14:04:00,
2013-04-20 09:09:00,38.8,29.5,30.18,NW,319,6.0,8.0,69,0.00,CLR,CLR,0.00,0.0,WeatherDisplay:10.37,2013-04-20 14:09:00,
2013-04-20 09:19:00,38.9,28.9,30.18,NW,310,6.0,9.0,67,0.00,CLR,CLR,0.00,0.0,WeatherDisplay:10.37,2013-04-20 14:19:00,
2013-04-20 09:29:00,39.6,30.6,30.19,NW,314,6.0,8.0,70,0.00,CLR,CLR,0.00,0.0,WeatherDisplay:10.37,2013-04-20 14:29:00,
2013-04-20 09:34:00,39.8,29.4,30.19,NW,305,6.0,10.0,66,0.00,CLR,CLR,0.00,0.0,WeatherDisplay:10.37,2013-04-20 14:34:00,
2013-04-20 09:39:00,40.0,31.0,30.19,NW,316,5.0,10.0,70,0.00,CLR,CLR,0.00,0.0,WeatherDisplay:10.37,2013-04-20 14:39:00,
2013-04-20 09:49:00,40.2,30.5,30.21,WNW,297,5.0,8.0,68,0.00,CLR,CLR,0.00,0.0,WeatherDisplay:10.37,2013-04-20 14:49:00,
2013-04-20 09:54:00,40.7,31.3,30.21,NW,312,6.0,10.0,69,0.00,CLR,CLR,0.00,0.0,WeatherDisplay:10.37,2013-04-20 14:54:00,
2013-04-20 09:59:00,40.5,28.9,30.21,NW,315,6.0,9.0,63,0.00,CLR,CLR,0.00,0.0,WeatherDisplay:10.37,2013-04-20 14:59:00,
2013-04-20 10:09:00,40.5,28.1,30.22,WNW,300,5.0,9.0,61,0.00,CLR,CLR,0.00,0.0,WeatherDisplay:10.37,2013-04-20 15:09:00,
2013-04-20 10:14:00,40.6,29.0,30.22,WNW,292,5.0,8.0,63,0.00,CLR,CLR,0.00,0.0,WeatherDisplay:10.37,2013-04-20 15:14:00,
2013-04-20 10:19:00,40.7,29.1,30.22,WNW,303,6.0,10.0,63,0.00,CLR,CLR,0.00,0.0,WeatherDisplay:10.37,2013-04-20 15:19:00,
2013-04-20 10:29:00,41.0,28.2,30.23,WNW,297,6.0,10.0,60,0.00,CLR,CLR,0.00,0.0,WeatherDisplay:10.37,2013-04-20 15:29:00,
2013-04-20 10:34:00,41.1,28.7,30.23,WNW,295,6.0,10.0,61,0.00,CLR,CLR,0.00,0.0,WeatherDisplay:10.37,2013-04-20 15:34:00,
2013-04-20 10:39:00,41.5,29.0,30.23,NW,307,6.0,10.0,61,0.00,CLR,CLR,0.00,0.0,WeatherDisplay:10.37,2013-04-20 15:39:00,
2013-04-20 10:49:00,42.3,30.2,30.24,WNW,303,6.0,9.0,62,0.00,CLR,CLR,0.00,0.0,WeatherDisplay:10.37,2013-04-20 15:49:00,
2013-04-20 10:54:00,42.5,29.1,30.24,WNW,297,6.0,12.0,59,0.00,CLR,CLR,0.00,0.0,WeatherDisplay:10.37,2013-04-20 15:54:00,
2013-04-20 10:59:00,41.9,28.2,30.24,WNW,296,7.0,10.0,58,0.00,CLR,CLR,0.00,0.0,WeatherDisplay:10.37,2013-04-20 15:59:00,
2013-04-20 11:09:00,41.6,28.7,30.24,WNW,294,5.0,12.0,60,0.00,CLR,CLR,0.00,0.0,WeatherDisplay:10.37,2013-04-20 16:09:00,
2013-04-20 11:19:00,41.1,27.9,30.24,WNW,289,3.0,7.0,59,0.00,CLR,CLR,0.00,0.0,WeatherDisplay:10.37,2013-04-20 16:19:00,
2013-04-20 11:24:00,41.7,29.7,30.24,WNW,282,6.0,9.0,62,0.00,CLR,CLR,0.00,0.0,WeatherDisplay:10.37,2013-04-20 16:24:00,
2013-04-20 11:34:00,43.1,28.9,30.24,WNW,284,5.0,12.0,57,0.00,CLR,CLR,0.00,0.0,WeatherDisplay:10.37,2013-04-20 16:34:00,
2013-04-20 11:39:00,42.0,28.7,30.24,WNW,285,7.0,9.0,59,0.00,CLR,CLR,0.00,0.0,WeatherDisplay:10.37,2013-04-20 16:39:00,
2013-04-20 11:44:00,42.2,31.2,30.24,WNW,283,6.0,9.0,65,0.00,CLR,CLR,0.00,0.0,WeatherDisplay:10.37,2013-04-20 16:44:00,
2013-04-20 11:49:00,42.3,29.4,30.24,WNW,284,5.0,10.0,60,0.00,CLR,CLR,0.00,0.0,WeatherDisplay:10.37,2013-04-20 16:49:00,
2013-04-20 11:59:00,41.9,29.8,30.25,WNW,295,6.0,12.0,62,0.00,CLR,CLR,0.00,0.0,WeatherDisplay:10.37,2013-04-20 16:59:00,
2013-04-20 12:04:00,42.3,27.7,30.25,WNW,294,5.0,9.0,56,0.00,CLR,CLR,0.00,0.0,WeatherDisplay:10.37,2013-04-20 17:04:00,
2013-04-20 12:09:00,42.3,31.4,30.25,NW,306,6.0,9.0,65,0.00,CLR,CLR,0.00,0.0,WeatherDisplay:10.37,2013-04-20 17:09:00,
2013-04-20 12:14:00,42.9,29.1,30.25,WNW,295,5.0,9.0,58,0.00,CLR,CLR,0.00,0.0,WeatherDisplay:10.37,2013-04-20 17:14:00,
2013-04-20 12:19:00,42.2,30.1,30.25,WNW,282,6.0,8.0,62,0.00,CLR,CLR,0.00,0.0,WeatherDisplay:10.37,2013-04-20 17:19:00,
2013-04-20 12:24:00,43.2,32.2,30.25,WNW,293,6.0,12.0,65,0.00,CLR,CLR,0.00,0.0,WeatherDisplay:10.37,2013-04-20 17:24:00,
2013-04-20 12:29:00,43.4,28.3,30.25,WNW,297,7.0,10.0,55,0.00,CLR,CLR,0.00,0.0,WeatherDisplay:10.37,2013-04-20 17:29:00,
2013-04-20 12:34:00,42.2,27.2,30.25,WNW,292,3.0,10.0,55,0.00,CLR,CLR,0.00,0.0,WeatherDisplay:10.37,2013-04-20 17:34:00,
2013-04-20 12:39:00,42.0,29.1,30.25,WNW,298,6.0,9.0,60,0.00,CLR,CLR,0.00,0.0,WeatherDisplay:10.37,2013-04-20 17:39:00,
2013-04-20 12:44:00,42.0,28.3,30.25,NW,308,6.0,9.0,58,0.00,CLR,CLR,0.00,0.0,WeatherDisplay:10.37,2013-04-20 17:44:00,
2013-04-20 12:49:00,41.6,27.5,30.25,WNW,299,5.0,10.0,57,0.00,CLR,CLR,0.00,0.0,WeatherDisplay:10.37,2013-04-20 17:49:00,
2013-04-20 12:54:00,41.5,28.2,30.25,WNW,293,6.0,10.0,59,0.00,CLR,CLR,0.00,0.0,WeatherDisplay:10.37,2013-04-20 17:54:00,
2013-04-20 12:59:00,42.0,28.2,30.25,WNW,295,6.0,9.0,58,0.00,CLR,CLR,0.00,0.0,WeatherDisplay:10.37,2013-04-20 17:59:00,
2013-04-20 13:04:00,42.0,28.7,30.25,WNW,289,6.0,8.0,59,0.00,CLR,CLR,0.00,0.0,WeatherDisplay:10.37,2013-04-20 18:04:00,
2013-04-20 13:09:00,42.3,29.0,30.25,West,277,6.0,9.0,59,0.00,CLR,CLR,0.00,0.0,WeatherDisplay:10.37,2013-04-20 18:09:00,
2013-04-20 13:14:00,42.5,29.6,30.25,WNW,290,5.0,8.0,60,0.00,CLR,CLR,0.00,0.0,WeatherDisplay:10.37,2013-04-20 18:14:00,
2013-04-20 13:19:00,42.2,28.5,30.25,WNW,298,6.0,9.0,58,0.00,CLR,CLR,0.00,0.0,WeatherDisplay:10.37,2013-04-20 18:19:00,
2013-04-20 13:29:00,42.5,30.0,30.25,NW,304,6.0,8.0,61,0.00,CLR,CLR,0.00,0.0,WeatherDisplay:10.37,2013-04-20 18:29:00,
2013-04-20 13:34:00,42.5,28.8,30.26,WNW,301,6.0,10.0,58,0.00,CLR,CLR,0.00,0.0,WeatherDisplay:10.37,2013-04-20 18:34:00,
2013-04-20 13:39:00,42.5,30.4,30.26,WNW,301,6.0,9.0,62,0.00,CLR,CLR,0.00,0.0,WeatherDisplay:10.37,2013-04-20 18:39:00,
2013-04-20 13:44:00,42.6,29.3,30.26,WNW,303,6.0,12.0,59,0.00,CLR,CLR,0.00,0.0,WeatherDisplay:10.37,2013-04-20 18:44:00,
2013-04-20 13:49:00,44.7,32.9,30.26,NW,311,7.0,12.0,63,0.00,CLR,CLR,0.00,0.0,WeatherDisplay:10.37,2013-04-20 18:49:00,
2013-04-20 13:54:00,44.4,29.2,30.26,NW,325,5.0,9.0,55,0.00,CLR,CLR,0.00,0.0,WeatherDisplay:10.37,2013-04-20 18:54:00,
2013-04-20 13:59:00,43.5,30.1,30.26,NW,326,3.0,9.0,59,0.00,CLR,CLR,0.00,0.0,WeatherDisplay:10.37,2013-04-20 18:59:00,
2013-04-20 14:04:00,43.3,28.6,30.26,NW,325,3.0,6.0,56,0.00,CLR,CLR,0.00,0.0,WeatherDisplay:10.37,2013-04-20 19:04:00,
2013-04-20 14:09:00,43.0,28.4,30.26,NW,316,5.0,7.0,56,0.00,CLR,CLR,0.00,0.0,WeatherDisplay:10.37,2013-04-20 19:09:00,
2013-04-20 14:14:00,42.8,29.1,30.26,NW,312,3.0,8.0,58,0.00,CLR,CLR,0.00,0.0,WeatherDisplay:10.37,2013-04-20 19:14:00,
2013-04-20 14:19:00,44.2,30.0,30.27,NW,310,6.0,9.0,57,0.00,CLR,CLR,0.00,0.0,WeatherDisplay:10.37,2013-04-20 19:19:00,
2013-04-20 14:24:00,44.8,30.0,30.27,WNW,292,5.0,10.0,56,0.00,CLR,CLR,0.00,0.0,WeatherDisplay:10.37,2013-04-20 19:24:00,
2013-04-20 14:29:00,44.3,29.1,30.27,WNW,297,7.0,9.0,55,0.00,CLR,CLR,0.00,0.0,WeatherDisplay:10.37,2013-04-20 19:29:00,
2013-04-20 14:34:00,44.7,30.8,30.27,NW,308,3.0,8.0,58,0.00,CLR,CLR,0.00,0.0,WeatherDisplay:10.37,2013-04-20 19:34:00,
2013-04-20 14:39:00,45.6,31.3,30.27,NW,325,5.0,9.0,57,0.00,CLR,CLR,0.00,0.0,WeatherDisplay:10.37,2013-04-20 19:39:00,
2013-04-20 14:44:00,45.6,27.0,30.27,NW,325,5.0,10.0,48,0.00,CLR,CLR,0.00,0.0,WeatherDisplay:10.37,2013-04-20 19:44:00,
2013-04-20 14:49:00,44.9,28.3,30.27,NW,307,3.0,7.0,52,0.00,CLR,CLR,0.00,0.0,WeatherDisplay:10.37,2013-04-20 19:49:00,
2013-04-20 14:54:00,44.1,27.6,30.27,WNW,282,8.0,12.0,52,0.00,CLR,CLR,0.00,0.0,WeatherDisplay:10.37,2013-04-20 19:54:00,
2013-04-20 14:59:00,43.7,28.1,30.27,WNW,298,5.0,8.0,54,0.00,CLR,CLR,0.00,0.0,WeatherDisplay:10.37,2013-04-20 19:59:00,
2013-04-20 15:04:00,43.7,29.0,30.27,NW,316,5.0,8.0,56,0.00,CLR,CLR,0.00,0.0,WeatherDisplay:10.37,2013-04-20 20:04:00,
2013-04-20 15:09:00,43.6,27.6,30.27,NW,325,2.0,7.0,53,0.00,CLR,CLR,0.00,0.0,WeatherDisplay:10.37,2013-04-20 20:09:00,
2013-04-20 15:14:00,43.8,30.0,30.27,NW,313,3.0,7.0,58,0.00,CLR,CLR,0.00,0.0,WeatherDisplay:10.37,2013-04-20 20:14:00,
2013-04-20 15:19:00,44.0,29.7,30.27,WNW,291,3.0,7.0,57,0.00,CLR,CLR,0.00,0.0,WeatherDisplay:10.37,2013-04-20 20:19:00,
2013-04-20 15:24:00,44.0,29.7,30.27,WNW,286,5.0,6.0,57,0.00,CLR,CLR,0.00,0.0,WeatherDisplay:10.37,2013-04-20 20:24:00,
2013-04-20 15:29:00,44.1,29.4,30.27,NW,309,2.0,5.0,56,0.00,CLR,CLR,0.00,0.0,WeatherDisplay:10.37,2013-04-20 20:29:00,
2013-04-20 15:34:00,45.0,30.2,30.27,NW,322,5.0,7.0,56,0.00,CLR,CLR,0.00,0.0,WeatherDisplay:10.37,2013-04-20 20:34:00,
2013-04-20 15:39:00,44.9,28.7,30.27,WNW,289,3.0,7.0,53,0.00,CLR,CLR,0.00,0.0,WeatherDisplay:10.37,2013-04-20 20:39:00,
2013-04-20 15:44:00,44.2,28.6,30.27,WNW,282,5.0,7.0,54,0.00,CLR,CLR,0.00,0.0,WeatherDisplay:10.37,2013-04-20 20:44:00,
2013-04-20 15:49:00,44.3,30.0,30.27,WNW,282,3.0,7.0,57,0.00,CLR,CLR,0.00,0.0,WeatherDisplay:10.37,2013-04-20 20:49:00,
2013-04-20 15:54:00,44.2,29.0,30.28,West,276,2.0,6.0,55,0.00,CLR,CLR,0.00,0.0,WeatherDisplay:10.37,2013-04-20 20:54:00,
2013-04-20 15:59:00,44.0,30.2,30.28,West,279,3.0,6.0,58,0.00,CLR,CLR,0.00,0.0,WeatherDisplay:10.37,2013-04-20 20:59:00,
2013-04-20 16:04:00,44.0,28.9,30.27,West,270,3.0,6.0,55,0.00,CLR,CLR,0.00,0.0,WeatherDisplay:10.37,2013-04-20 21:04:00,
2013-04-20 16:09:00,43.8,29.6,30.28,West,266,2.0,6.0,57,0.00,CLR,CLR,0.00,0.0,WeatherDisplay:10.37,2013-04-20 21:09:00,
2013-04-20 16:14:00,44.0,29.7,30.28,West,280,3.0,5.0,57,0.00,CLR,CLR,0.00,0.0,WeatherDisplay:10.37,2013-04-20 21:14:00,
2013-04-20 16:19:00,43.8,29.1,30.28,WNW,294,3.0,6.0,56,0.00,CLR,CLR,0.00,0.0,WeatherDisplay:10.37,2013-04-20 21:19:00,
2013-04-20 16:24:00,43.8,28.6,30.28,NW,306,2.0,6.0,55,0.00,CLR,CLR,0.00,0.0,WeatherDisplay:10.37,2013-04-20 21:24:00,
2013-04-20 16:29:00,43.8,29.5,30.28,NW,315,2.0,4.0,57,0.00,CLR,CLR,0.00,0.0,WeatherDisplay:10.37,2013-04-20 21:29:00,
2013-04-20 16:34:00,44.0,28.8,30.28,NW,311,2.0,4.0,55,0.00,CLR,CLR,0.00,0.0,WeatherDisplay:10.37,2013-04-20 21:34:00,
2013-04-20 16:39:00,43.9,27.4,30.28,West,269,5.0,7.0,52,0.00,CLR,CLR,0.00,0.0,WeatherDisplay:10.37,2013-04-20 21:39:00,
2013-04-20 16:44:00,43.9,29.2,30.28,West,261,3.0,4.0,56,0.00,CLR,CLR,0.00,0.0,WeatherDisplay:10.37,2013-04-20 21:44:00,
2013-04-20 16:49:00,43.8,28.6,30.28,West,264,2.0,5.0,55,0.00,CLR,CLR,0.00,0.0,WeatherDisplay:10.37,2013-04-20 21:49:00,
2013-04-20 16:54:00,43.6,30.2,30.28,West,264,1.0,6.0,59,0.00,CLR,CLR,0.00,0.0,WeatherDisplay:10.37,2013-04-20 21:54:00,
2013-04-20 16:59:00,43.6,29.0,30.28,West,273,3.0,5.0,56,0.00,CLR,CLR,0.00,0.0,WeatherDisplay:10.37,2013-04-20 21:59:00,
2013-04-20 17:04:00,43.6,30.2,30.28,West,281,3.0,5.0,59,0.00,CLR,CLR,0.00,0.0,WeatherDisplay:10.37,2013-04-20 22:04:00,
2013-04-20 17:09:00,43.6,29.8,30.28,West,280,2.0,4.0,58,0.00,CLR,CLR,0.00,0.0,WeatherDisplay:10.37,2013-04-20 22:09:00,
2013-04-20 17:14:00,43.8,30.0,30.28,West,268,2.0,4.0,58,0.00,CLR,CLR,0.00,0.0,WeatherDisplay:10.37,2013-04-20 22:14:00,
2013-04-20 17:19:00,44.7,30.8,30.28,West,273,2.0,6.0,58,0.00,CLR,CLR,0.00,0.0,WeatherDisplay:10.37,2013-04-20 22:19:00,
2013-04-20 17:24:00,45.1,30.3,30.28,WNW,287,5.0,6.0,56,0.00,CLR,CLR,0.00,0.0,WeatherDisplay:10.37,2013-04-20 22:24:00,
2013-04-20 17:29:00,45.4,30.2,30.28,WNW,287,3.0,7.0,55,0.00,CLR,CLR,0.00,0.0,WeatherDisplay:10.37,2013-04-20 22:29:00,
2013-04-20 17:34:00,45.6,30.3,30.28,WNW,282,5.0,7.0,55,0.00,CLR,CLR,0.00,0.0,WeatherDisplay:10.37,2013-04-20 22:34:00,
2013-04-20 17:39:00,45.6,29.0,30.28,WNW,292,3.0,6.0,52,0.00,CLR,CLR,0.00,0.0,WeatherDisplay:10.37,2013-04-20 22:39:00,
2013-04-20 17:44:00,45.5,29.3,30.28,West,278,2.0,6.0,53,0.00,CLR,CLR,0.00,0.0,WeatherDisplay:10.37,2013-04-20 22:44:00,
2013-04-20 17:54:00,45.7,30.4,30.28,WNW,285,2.0,5.0,55,0.00,CLR,CLR,0.00,0.0,WeatherDisplay:10.37,2013-04-20 22:54:00,
2013-04-20 17:59:00,45.8,28.7,30.28,WNW,289,2.0,6.0,51,0.00,CLR,CLR,0.00,0.0,WeatherDisplay:10.37,2013-04-20 22:59:00,
2013-04-20 18:04:00,45.8,28.2,30.28,WNW,283,1.0,3.0,50,0.00,CLR,CLR,0.00,0.0,WeatherDisplay:10.37,2013-04-20 23:04:00,
2013-04-20 18:09:00,46.0,28.4,30.28,WNW,292,2.0,4.0,50,0.00,CLR,CLR,0.00,0.0,WeatherDisplay:10.37,2013-04-20 23:09:00,
2013-04-20 18:14:00,45.6,28.5,30.28,West,279,2.0,5.0,51,0.00,CLR,CLR,0.00,0.0,WeatherDisplay:10.37,2013-04-20 23:14:00,
2013-04-20 18:19:00,44.7,28.6,30.28,West,279,2.0,6.0,53,0.00,CLR,CLR,0.00,0.0,WeatherDisplay:10.37,2013-04-20 23:19:00,
2013-04-20 18:24:00,43.9,28.8,30.29,WNW,284,2.0,4.0,55,0.00,CLR,CLR,0.00,0.0,WeatherDisplay:10.37,2013-04-20 23:24:00,
2013-04-20 18:29:00,43.3,29.9,30.29,WNW,285,1.0,3.0,59,0.00,CLR,CLR,0.00,0.0,WeatherDisplay:10.37,2013-04-20 23:29:00,
2013-04-20 18:34:00,42.9,30.7,30.29,WNW,285,1.0,3.0,62,0.00,CLR,CLR,0.00,0.0,WeatherDisplay:10.37,2013-04-20 23:34:00,
2013-04-20 18:39:00,42.6,30.8,30.29,WNW,285,0.0,1.0,63,0.00,CLR,CLR,0.00,0.0,WeatherDisplay:10.37,2013-04-20 23:39:00,
2013-04-20 18:44:00,42.4,30.7,30.29,WNW,285,0.0,1.0,63,0.00,CLR,CLR,0.00,0.0,WeatherDisplay:10.37,2013-04-20 23:44:00,
2013-04-20 18:49:00,42.5,31.2,30.29,WNW,285,0.0,0.0,64,0.00,CLR,CLR,0.00,0.0,WeatherDisplay:10.37,2013-04-20 23:49:00,
2013-04-20 18:54:00,42.5,30.7,30.29,WNW,285,0.0,0.0,63,0.00,CLR,CLR,0.00,0.0,WeatherDisplay:10.37,2013-04-20 23:54:00,
2013-04-20 18:59:00,42.3,30.2,30.29,WNW,285,0.0,0.0,62,0.00,CLR,CLR,0.00,0.0,WeatherDisplay:10.37,2013-04-20 23:59:00,
2013-04-20 19:04:00,42.2,29.7,30.30,WNW,285,0.0,0.0,61,0.00,CLR,CLR,0.00,0.0,WeatherDisplay:10.37,2013-04-21 00:04:00,
2013-04-20 19:09:00,42.2,29.7,30.30,WNW,285,0.0,0.0,61,0.00,CLR,CLR,0.00,0.0,WeatherDisplay:10.37,2013-04-21 00:09:00,
2013-04-20 19:14:00,42.1,30.4,30.30,WNW,285,0.0,0.0,63,0.00,CLR,CLR,0.00,0.0,WeatherDisplay:10.37,2013-04-21 00:14:00,
2013-04-20 19:19:00,42.0,31.8,30.30,WNW,285,0.0,2.0,67,0.00,CLR,CLR,0.00,0.0,WeatherDisplay:10.37,2013-04-21 00:19:00,
2013-04-20 19:24:00,41.7,30.4,30.30,WNW,285,0.0,1.0,64,0.00,CLR,CLR,0.00,0.0,WeatherDisplay:10.37,2013-04-21 00:24:00,
2013-04-20 19:29:00,41.5,30.6,30.30,WNW,285,0.0,0.0,65,0.00,CLR,CLR,0.00,0.0,WeatherDisplay:10.37,2013-04-21 00:29:00,
2013-04-20 19:34:00,41.5,30.6,30.30,WNW,285,0.0,0.0,65,0.00,CLR,CLR,0.00,0.0,WeatherDisplay:10.37,2013-04-21 00:34:00,
2013-04-20 19:39:00,41.3,31.9,30.31,WNW,285,0.0,0.0,69,0.00,CLR,CLR,0.00,0.0,WeatherDisplay:10.37,2013-04-21 00:39:00,
2013-04-20 19:44:00,41.0,31.9,30.31,WNW,285,0.0,0.0,70,0.00,CLR,CLR,0.00,0.0,WeatherDisplay:10.37,2013-04-21 00:44:00,
2013-04-20 19:49:00,40.7,29.8,30.31,WNW,285,0.0,1.0,65,0.00,CLR,CLR,0.00,0.0,WeatherDisplay:10.37,2013-04-21 00:49:00,
2013-04-20 19:54:00,40.2,31.5,30.31,WNW,285,2.0,3.0,71,0.00,CLR,CLR,0.00,0.0,WeatherDisplay:10.37,2013-04-21 00:54:00,
2013-04-20 19:59:00,39.9,30.9,30.31,WNW,285,0.0,2.0,70,0.00,CLR,CLR,0.00,0.0,WeatherDisplay:10.37,2013-04-21 00:59:00,
2013-04-20 20:04:00,39.4,32.1,30.32,WNW,285,0.0,1.0,75,0.00,CLR,CLR,0.00,0.0,WeatherDisplay:10.37,2013-04-21 01:04:00,
2013-04-20 20:09:00,38.6,31.4,30.32,WNW,285,0.0,0.0,75,0.00,CLR,CLR,0.00,0.0,WeatherDisplay:10.37,2013-04-21 01:09:00,
2013-04-20 20:14:00,38.4,30.5,30.33,North,354,3.0,7.0,73,0.00,CLR,CLR,0.00,0.0,WeatherDisplay:10.37,2013-04-21 01:14:00,
2013-04-20 20:19:00,38.2,29.3,30.33,ENE,59,2.0,4.0,70,0.00,CLR,CLR,0.00,0.0,WeatherDisplay:10.37,2013-04-21 01:19:00,
2013-04-20 20:24:00,38.3,29.0,30.33,ENE,74,1.0,3.0,69,0.00,CLR,CLR,0.00,0.0,WeatherDisplay:10.37,2013-04-21 01:24:00,
2013-04-20 20:29:00,38.3,28.7,30.34,ENE,77,1.0,5.0,68,0.00,CLR,CLR,0.00,0.0,WeatherDisplay:10.37,2013-04-21 01:29:00,
2013-04-20 20:34:00,38.4,28.8,30.34,ENE,75,2.0,5.0,68,0.00,CLR,CLR,0.00,0.0,WeatherDisplay:10.37,2013-04-21 01:34:00,
2013-04-20 20:39:00,38.4,28.7,30.34,East,82,1.0,3.0,68,0.00,CLR,CLR,0.00,0.0,WeatherDisplay:10.37,2013-04-21 01:39:00,
2013-04-20 20:44:00,38.0,29.1,30.35,East,87,0.0,2.0,70,0.00,CLR,CLR,0.00,0.0,WeatherDisplay:10.37,2013-04-21 01:44:00,
2013-04-20 20:49:00,37.6,29.3,30.35,East,87,0.0,2.0,72,0.00,CLR,CLR,0.00,0.0,WeatherDisplay:10.37,2013-04-21 01:49:00,
2013-04-20 20:54:00,37.3,29.4,30.35,East,87,0.0,2.0,73,0.00,CLR,CLR,0.00,0.0,WeatherDisplay:10.37,2013-04-21 01:54:00,
2013-04-20 20:59:00,36.9,29.4,30.35,East,87,0.0,2.0,74,0.00,CLR,CLR,0.00,0.0,WeatherDisplay:10.37,2013-04-21 01:59:00,
2013-04-20 21:04:00,36.6,29.1,30.36,East,83,0.0,2.0,74,0.00,CLR,CLR,0.00,0.0,WeatherDisplay:10.37,2013-04-21 02:04:00,
2013-04-20 21:09:00,36.3,29.1,30.36,ENE,70,0.0,3.0,75,0.00,CLR,CLR,0.00,0.0,WeatherDisplay:10.37,2013-04-21 02:09:00,
2013-04-20 21:14:00,36.1,29.3,30.36,ENE,69,1.0,3.0,76,0.00,CLR,CLR,0.00,0.0,WeatherDisplay:10.37,2013-04-21 02:14:00,
2013-04-20 21:19:00,35.8,28.7,30.36,ENE,70,1.0,2.0,75,0.00,CLR,CLR,0.00,0.0,WeatherDisplay:10.37,2013-04-21 02:19:00,
2013-04-20 21:24:00,35.6,29.1,30.36,ENE,71,0.0,1.0,77,0.00,CLR,CLR,0.00,0.0,WeatherDisplay:10.37,2013-04-21 02:24:00,
2013-04-20 21:29:00,35.2,29.0,30.37,ENE,71,1.0,2.0,78,0.00,CLR,CLR,0.00,0.0,WeatherDisplay:10.37,2013-04-21 02:29:00,
2013-04-20 21:34:00,35.0,29.1,30.37,ENE,71,0.0,1.0,79,0.00,CLR,CLR,0.00,0.0,WeatherDisplay:10.37,2013-04-21 02:34:00,
2013-04-20 21:39:00,34.7,28.8,30.37,ENE,71,1.0,1.0,79,0.00,CLR,CLR,0.00,0.0,WeatherDisplay:10.37,2013-04-21 02:39:00,
2013-04-20 21:44:00,34.5,29.0,30.37,ENE,72,1.0,2.0,80,0.00,CLR,CLR,0.00,0.0,WeatherDisplay:10.37,2013-04-21 02:44:00,
2013-04-20 21:49:00,34.4,28.6,30.38,ENE,72,0.0,2.0,79,0.00,CLR,CLR,0.00,0.0,WeatherDisplay:10.37,2013-04-21 02:49:00,
2013-04-20 21:54:00,34.3,28.5,30.38,ENE,72,0.0,2.0,79,0.00,CLR,CLR,0.00,0.0,WeatherDisplay:10.37,2013-04-21 02:54:00,
2013-04-20 21:59:00,34.2,28.1,30.38,ENE,72,0.0,2.0,78,0.00,CLR,CLR,0.00,0.0,WeatherDisplay:10.37,2013-04-21 02:59:00,
2013-04-20 22:04:00,34.1,28.0,30.38,ENE,72,0.0,2.0,78,0.00,CLR,CLR,0.00,0.0,WeatherDisplay:10.37,2013-04-21 03:04:00,
2013-04-20 22:09:00,33.9,27.8,30.38,ENE,72,0.0,2.0,78,0.00,CLR,CLR,0.00,0.0,WeatherDisplay:10.37,2013-04-21 03:09:00,
2013-04-20 22:14:00,33.7,27.9,30.38,ENE,72,0.0,2.0,79,0.00,CLR,CLR,0.00,0.0,WeatherDisplay:10.37,2013-04-21 03:14:00,
2013-04-20 22:19:00,33.7,27.9,30.39,ENE,71,1.0,2.0,79,0.00,CLR,CLR,0.00,0.0,WeatherDisplay:10.37,2013-04-21 03:19:00,
2013-04-20 22:24:00,33.7,27.6,30.38,ENE,61,1.0,3.0,78,0.00,CLR,CLR,0.00,0.0,WeatherDisplay:10.37,2013-04-21 03:24:00,
2013-04-20 22:29:00,33.7,27.3,30.39,ENE,59,1.0,2.0,77,0.00,CLR,CLR,0.00,0.0,WeatherDisplay:10.37,2013-04-21 03:29:00,
2013-04-20 22:34:00,33.7,27.2,30.39,ENE,63,1.0,2.0,77,0.00,CLR,CLR,0.00,0.0,WeatherDisplay:10.37,2013-04-21 03:34:00,
2013-04-20 22:39:00,33.7,27.3,30.39,East,83,2.0,5.0,77,0.00,CLR,CLR,0.00,0.0,WeatherDisplay:10.37,2013-04-21 03:39:00,
2013-04-20 22:44:00,33.7,27.6,30.39,East,89,2.0,5.0,78,0.00,CLR,CLR,0.00,0.0,WeatherDisplay:10.37,2013-04-21 03:44:00,
2013-04-20 22:49:00,33.7,27.6,30.39,East,83,2.0,5.0,78,0.00,CLR,CLR,0.00,0.0,WeatherDisplay:10.37,2013-04-21 03:49:00,
2013-04-20 22:54:00,33.8,27.6,30.39,East,84,3.0,6.0,78,0.00,CLR,CLR,0.00,0.0,WeatherDisplay:10.37,2013-04-21 03:54:00,
2013-04-20 22:59:00,33.8,27.7,30.39,East,86,2.0,5.0,78,0.00,CLR,CLR,0.00,0.0,WeatherDisplay:10.37,2013-04-21 03:59:00,
2013-04-20 23:04:00,33.6,27.5,30.39,East,85,3.0,6.0,78,0.00,CLR,CLR,0.00,0.0,WeatherDisplay:10.37,2013-04-21 04:04:00,
2013-04-20 23:09:00,33.7,27.6,30.39,East,85,3.0,5.0,78,0.00,CLR,CLR,0.00,0.0,WeatherDisplay:10.37,2013-04-21 04:09:00,
2013-04-20 23:14:00,33.6,27.1,30.39,East,83,3.0,5.0,77,0.00,CLR,CLR,0.00,0.0,WeatherDisplay:10.37,2013-04-21 04:14:00,
2013-04-20 23:19:00,33.4,27.3,30.39,East,90,3.0,6.0,78,0.00,CLR,CLR,0.00,0.0,WeatherDisplay:10.37,2013-04-21 04:19:00,
2013-04-20 23:24:00,33.2,27.4,30.39,East,95,5.0,6.0,79,0.00,CLR,CLR,0.00,0.0,WeatherDisplay:10.37,2013-04-21 04:24:00,
2013-04-20 23:29:00,33.1,27.6,30.39,East,94,5.0,6.0,80,0.00,CLR,CLR,0.00,0.0,WeatherDisplay:10.37,2013-04-21 04:29:00,
2013-04-20 23:34:00,33.2,27.7,30.39,East,94,3.0,6.0,80,0.00,CLR,CLR,0.00,0.0,WeatherDisplay:10.37,2013-04-21 04:34:00,
2013-04-20 23:39:00,33.2,27.4,30.39,East,97,5.0,7.0,79,0.00,CLR,CLR,0.00,0.0,WeatherDisplay:10.37,2013-04-21 04:39:00,
2013-04-20 23:44:00,33.2,27.4,30.39,East,99,5.0,7.0,79,0.00,CLR,CLR,0.00,0.0,WeatherDisplay:10.37,2013-04-21 04:44:00,
2013-04-20 23:49:00,33.2,27.7,30.39,ESE,102,3.0,7.0,80,0.00,CLR,CLR,0.00,0.0,WeatherDisplay:10.37,2013-04-21 04:49:00,
2013-04-20 23:54:00,33.3,27.5,30.39,ESE,103,5.0,8.0,79,0.00,CLR,CLR,0.00,0.0,WeatherDisplay:10.37,2013-04-21 04:54:00,
2013-04-20 23:59:00,33.2,27.4,30.39,East,100,3.0,7.0,79,0.00,CLR,CLR,0.00,0.0,WeatherDisplay:10.37,2013-04-21 04:59:00,